CW8944 Weather Reports


Display with metric or nautical units.
time (UTC)temp
F
wind
direction
speed
MPH
gust
MPH
rain 1hr
in
rain 24hr
in
rain mn
in
humidity
%
barometer
mb
20260507040510 53 0 0.0 5.0 0.01 0.32 0.00 92 1004.6
20260507040032 54 0 0.0 6.0 0.01 0.32 0.00 93 1004.6
20260507035512 54 281 2.0 6.0 0.01 0.32 0.32 93 1004.4
20260507035010 54 0 2.0 6.0 0.01 0.32 0.32 93 1004.5
20260507034535 55 0 0.0 0.0 0.00 0.31 0.31 93 1004.7
20260507034012 55 0 0.0 0.0 0.00 0.31 0.31 93 1004.5
20260507033511 55 0 0.0 6.0 0.00 0.31 0.31 93 1004.6
20260507033034 56 0 0.0 9.0 0.01 0.31 0.31 93 1004.6
20260507032516 56 0 4.0 9.0 0.01 0.31 0.31 93 1004.5
20260507032014 56 0 0.0 7.0 0.01 0.31 0.31 94 1004.6
20260507031529 57 0 0.0 7.0 0.01 0.31 0.31 94 1004.5
20260507031012 57 0 1.0 4.0 0.01 0.31 0.31 94 1004.5
20260507030517 57 283 0.0 4.0 0.01 0.31 0.31 94 1004.3
20260507030030 57 0 0.0 6.0 0.01 0.31 0.31 94 1004.3
20260507025511 58 0 0.0 6.0 0.01 0.31 0.31 94 1004.3
20260507025015 58 332 1.0 6.0 0.01 0.31 0.31 94 1004.1
20260507024532 59 257 0.0 6.0 0.01 0.31 0.31 94 1004.0
20260507024009 59 0 0.0 6.0 0.01 0.31 0.31 94 1004.0
20260507023513 59 294 3.0 6.0 0.01 0.31 0.31 94 1004.0
20260507023030 59 246 1.0 6.0 0.00 0.30 0.30 94 1003.9
20260507022510 59 241 3.0 6.0 0.00 0.30 0.30 94 1003.9
20260507022015 59 237 2.0 6.0 0.00 0.30 0.30 94 1003.7
20260507021530 59 0 1.0 6.0 0.00 0.30 0.30 94 1003.7
20260507021011 59 221 2.0 8.0 0.00 0.30 0.30 94 1003.8
20260507020513 59 193 2.0 8.0 0.00 0.30 0.30 94 1003.9
20260507020045 59 0 0.0 8.0 0.00 0.30 0.30 94 1003.8
20260507015510 59 233 2.0 8.0 0.00 0.30 0.30 94 1004.0
20260507015009 59 198 1.0 6.0 0.00 0.30 0.30 94 1003.9
20260507014534 59 245 1.0 10.0 0.00 0.30 0.30 94 1004.1
20260507014010 59 250 4.0 10.0 0.00 0.30 0.30 94 1004.1
20260507013508 59 225 1.0 8.0 0.00 0.30 0.30 94 1004.0
20260507013029 59 212 3.0 8.0 0.00 0.30 0.30 94 1004.0
20260507012509 59 228 3.0 8.0 0.00 0.30 0.30 94 1004.0
20260507012009 59 195 2.0 6.0 0.00 0.30 0.30 94 1004.1
20260507011541 59 235 2.0 6.0 0.00 0.30 0.30 94 1004.0
20260507011010 59 201 2.0 7.0 0.00 0.30 0.30 94 1004.0
20260507010513 59 269 1.0 7.0 0.00 0.30 0.30 94 1004.1
20260507010034 59 197 2.0 7.0 0.00 0.30 0.30 94 1004.0
20260507005511 59 197 2.0 8.0 0.00 0.30 0.30 94 1004.0
20260507005010 59 196 3.0 8.0 0.00 0.30 0.30 94 1004.0
20260507004531 59 227 2.0 6.0 0.00 0.30 0.30 94 1004.2
20260507004010 59 0 2.0 6.0 0.00 0.30 0.30 94 1004.0
20260507003515 59 249 0.0 8.0 0.00 0.30 0.30 94 1004.1
20260507003030 59 0 3.0 8.0 0.00 0.30 0.30 94 1004.0
20260507002509 59 205 3.0 7.0 0.00 0.30 0.30 94 1004.1
20260507002015 59 193 3.0 11.0 0.00 0.30 0.30 94 1003.9
20260507001602 59 0 2.0 11.0 0.00 0.30 0.30 94 1003.9
20260507001009 59 224 2.0 8.0 0.00 0.30 0.30 94 1003.9
20260507000514 59 182 3.0 8.0 0.00 0.30 0.30 94 1003.9
20260507000040 59 0 3.0 8.0 0.00 0.30 0.30 94 1003.9
20260506235511 59 256 4.0 8.0 0.00 0.30 0.30 94 1003.9
20260506235014 59 255 3.0 8.0 0.00 0.30 0.30 94 1003.8
20260506234531 59 196 2.0 11.0 0.00 0.30 0.30 94 1003.8
20260506234010 59 271 4.0 11.0 0.00 0.30 0.30 94 1003.8
20260506233510 59 191 3.0 11.0 0.00 0.30 0.30 94 1003.9
20260506233030 59 190 3.0 11.0 0.00 0.30 0.30 94 1003.8
20260506232510 59 194 6.0 11.0 0.00 0.30 0.30 94 1003.9
20260506232012 59 249 2.0 10.0 0.00 0.30 0.30 94 1003.9
20260506231531 59 205 2.0 9.0 0.00 0.30 0.30 94 1004.0
20260506231009 59 196 5.0 9.0 0.00 0.30 0.30 94 1003.9
20260506230517 59 201 2.0 9.0 0.00 0.30 0.30 94 1003.9
20260506230047 59 0 4.0 9.0 0.00 0.30 0.30 94 1003.9
20260506225509 59 172 3.0 10.0 0.01 0.30 0.30 94 1003.9
20260506225013 59 200 4.0 13.0 0.01 0.30 0.30 94 1003.9
20260506224530 59 234 6.0 15.0 0.01 0.30 0.30 94 1004.0
20260506224011 59 251 6.0 15.0 0.01 0.30 0.30 94 1004.1
20260506223512 59 195 3.0 12.0 0.02 0.30 0.30 94 1004.1
20260506223033 59 191 5.0 12.0 0.02 0.30 0.30 93 1004.2
20260506222513 59 193 5.0 11.0 0.02 0.30 0.30 93 1004.3
20260506222011 60 200 4.0 16.0 0.03 0.30 0.30 94 1004.3
20260506221530 60 202 6.0 16.0 0.03 0.30 0.30 94 1004.4
20260506221009 60 224 4.0 14.0 0.03 0.30 0.30 93 1004.4
20260506220510 60 206 6.0 14.0 0.03 0.30 0.30 93 1004.4
20260506220035 60 203 7.0 13.0 0.04 0.30 0.30 93 1004.4
20260506215510 60 200 4.0 15.0 0.03 0.29 0.29 93 1004.5
20260506215011 60 207 6.0 15.0 0.03 0.29 0.29 93 1004.5
20260506214529 60 213 7.0 15.0 0.04 0.29 0.29 93 1004.5
20260506214010 61 194 6.0 14.0 0.04 0.29 0.29 93 1004.5
20260506213515 61 186 3.0 10.0 0.03 0.28 0.28 93 1004.5
20260506213028 61 184 5.0 11.0 0.04 0.28 0.28 93 1004.6
20260506212508 61 192 5.0 12.0 0.04 0.27 0.27 93 1004.5
20260506212017 61 198 4.0 15.0 0.04 0.27 0.27 93 1004.7
20260506211530 61 199 3.0 15.0 0.05 0.27 0.27 93 1004.7
20260506211009 61 210 5.0 15.0 0.06 0.27 0.27 93 1004.7
20260506210517 61 198 1.0 8.0 0.07 0.27 0.27 93 1004.7
20260506210047 61 0 3.0 13.0 0.06 0.26 0.26 93 1004.7
20260506205508 61 186 6.0 13.0 0.06 0.26 0.26 93 1004.7
20260506205017 62 200 2.0 8.0 0.06 0.26 0.26 93 1004.8
20260506204530 62 181 2.0 7.0 0.05 0.25 0.25 93 1004.9
20260506204010 62 0 0.0 0.0 0.06 0.25 0.25 92 1005.0
20260506203514 62 0 0.0 4.0 0.06 0.25 0.25 92 1005.0
20260506203031 62 0 0.0 4.0 0.05 0.24 0.24 92 1005.0
20260506202509 62 0 0.0 0.0 0.04 0.23 0.23 92 1005.1
20260506202015 62 0 0.0 0.0 0.04 0.22 0.22 92 1005.0
20260506201530 62 0 0.0 0.0 0.04 0.22 0.22 92 1005.0
20260506201009 62 0 0.0 0.0 0.03 0.21 0.21 92 1005.0
20260506200511 62 0 0.0 0.0 0.03 0.20 0.20 92 1004.9
20260506200032 62 0 0.0 0.0 0.04 0.20 0.20 91 1004.9
20260506195511 62 0 0.0 0.0 0.05 0.20 0.20 91 1004.8
20260506195011 62 0 0.0 4.0 0.07 0.20 0.20 91 1004.8
20260506194528 62 0 0.0 4.0 0.08 0.20 0.20 91 1004.8
20260506194010 62 0 0.0 3.0 0.09 0.19 0.19 91 1004.9
20260506193511 62 0 0.0 7.0 0.09 0.19 0.19 91 1005.0
20260506193036 62 0 2.0 7.0 0.10 0.19 0.19 90 1005.1
20260506192510 62 205 1.0 5.0 0.10 0.19 0.19 90 1005.2
20260506192010 62 0 0.0 4.0 0.10 0.18 0.18 90 1005.2
20260506191530 62 240 0.0 5.0 0.12 0.18 0.18 90 1005.3
20260506191010 62 240 1.0 5.0 0.13 0.17 0.17 90 1005.5
20260506190511 62 240 0.0 9.0 0.14 0.17 0.17 90 1005.6
20260506190033 62 0 2.0 9.0 0.16 0.16 0.16 89 1005.7
20260506185514 62 250 3.0 9.0 0.15 0.15 0.15 89 1005.8
20260506185012 62 247 3.0 9.0 0.13 0.13 0.13 88 1005.7
20260506184537 63 242 2.0 6.0 0.11 0.11 0.11 88 1005.6
20260506184010 63 224 2.0 5.0 0.10 0.10 0.10 87 1005.6
20260506183512 63 235 2.0 6.0 0.09 0.09 0.09 86 1005.7
20260506183030 63 0 1.0 7.0 0.09 0.09 0.09 85 1005.6
20260506182511 63 229 2.0 10.0 0.09 0.09 0.09 84 1005.6
20260506182013 63 243 4.0 10.0 0.07 0.07 0.07 83 1005.8
20260506181539 64 258 3.0 13.0 0.06 0.06 0.06 81 1006.1
20260506181010 65 231 6.0 13.0 0.04 0.04 0.04 77 1006.0
20260506180519 67 230 4.0 13.0 0.02 0.02 0.02 73 1005.9
20260506180030 68 263 4.0 13.0 0.00 0.00 0.00 69 1005.6
20260506175511 70 240 3.0 11.0 0.00 0.00 0.00 64 1005.4
20260506175009 70 214 4.0 17.0 0.00 0.00 0.00 61 1005.2
20260506174535 71 198 5.0 17.0 0.00 0.00 0.00 59 1005.1
20260506174013 71 210 6.0 17.0 0.00 0.00 0.00 59 1005.1
20260506173512 71 207 6.0 17.0 0.00 0.00 0.00 59 1005.0
20260506173032 71 233 10.0 17.0 0.00 0.00 0.00 59 1005.2
20260506172512 71 221 3.0 15.0 0.00 0.00 0.00 60 1005.3
20260506172014 71 259 6.0 18.0 0.00 0.00 0.00 59 1005.2
20260506171533 71 262 5.0 18.0 0.00 0.00 0.00 60 1005.2
20260506171013 71 244 6.0 16.0 0.00 0.00 0.00 60 1005.5
20260506170514 71 225 6.0 18.0 0.00 0.00 0.00 59 1005.5
20260506170037 71 186 7.0 18.0 0.00 0.00 0.00 60 1005.6
20260506165512 70 231 6.0 18.0 0.00 0.00 0.00 61 1005.6
20260506165013 70 198 6.0 18.0 0.00 0.00 0.00 61 1005.6
20260506164546 70 259 5.0 17.0 0.00 0.00 0.00 61 1005.8
20260506164011 70 193 6.0 13.0 0.00 0.00 0.00 62 1005.9
20260506163513 70 191 5.0 20.0 0.00 0.00 0.00 62 1005.9
20260506163035 70 217 9.0 20.0 0.00 0.00 0.00 61 1005.9
20260506162511 70 193 6.0 14.0 0.00 0.00 0.00 62 1006.2
20260506162011 70 205 6.0 14.0 0.00 0.00 0.00 62 1006.3
20260506161530 70 206 7.0 16.0 0.00 0.00 0.00 63 1006.2
20260506161015 70 174 8.0 16.0 0.00 0.00 0.00 63 1006.6
20260506160513 70 257 4.0 14.0 0.00 0.00 0.00 63 1006.8
20260506160034 69 191 4.0 14.0 0.00 0.00 0.00 64 1006.9
20260506155514 69 200 6.0 14.0 0.00 0.00 0.00 65 1007.1
20260506155013 69 205 4.0 13.0 0.00 0.00 0.00 65 1007.1
20260506154533 69 195 4.0 13.0 0.00 0.00 0.00 66 1007.2
20260506154014 69 197 4.0 12.0 0.00 0.00 0.00 66 1007.3
20260506153514 69 235 5.0 12.0 0.00 0.00 0.00 66 1007.6
20260506153032 69 206 3.0 12.0 0.00 0.00 0.00 67 1007.5
20260506152510 68 225 5.0 13.0 0.00 0.00 0.00 67 1007.5
20260506152015 68 226 4.0 13.0 0.00 0.00 0.00 68 1007.5
20260506151533 68 244 5.0 12.0 0.00 0.00 0.00 68 1007.3
20260506151011 67 219 5.0 14.0 0.00 0.00 0.00 69 1007.2
20260506150513 67 231 5.0 14.0 0.00 0.00 0.00 69 1007.5
20260506150104 67 233 3.0 13.0 0.00 0.00 0.00 69 1007.7
20260506145508 67 248 5.0 16.0 0.00 0.00 0.00 69 1007.7
20260506145018 67 250 6.0 16.0 0.00 0.00 0.00 69 1007.5
20260506144530 67 193 3.0 12.0 0.00 0.00 0.00 70 1007.4
20260506144013 67 187 4.0 9.0 0.00 0.00 0.00 70 1007.5
20260506143517 67 181 4.0 10.0 0.00 0.00 0.00 70 1007.5
20260506143037 67 200 3.0 11.0 0.00 0.00 0.00 70 1007.4
20260506142513 67 212 4.0 16.0 0.00 0.00 0.00 70 1007.3
20260506142011 67 195 4.0 16.0 0.00 0.00 0.00 71 1007.2
20260506141540 66 195 4.0 12.0 0.00 0.00 0.00 71 1007.2
20260506141008 66 202 2.0 10.0 0.00 0.00 0.00 72 1007.3
20260506140512 66 231 3.0 11.0 0.00 0.00 0.00 72 1007.4
20260506140028 66 247 3.0 11.0 0.00 0.00 0.00 72 1007.5
20260506135508 66 206 4.0 9.0 0.00 0.00 0.00 72 1007.5
20260506135012 65 209 2.0 9.0 0.00 0.00 0.00 73 1007.5
20260506134530 65 0 1.0 7.0 0.00 0.00 0.00 73 1007.6
20260506134010 65 195 2.0 7.0 0.00 0.00 0.00 74 1007.6
20260506133514 65 199 2.0 7.0 0.00 0.00 0.00 74 1007.7
20260506133030 65 0 0.0 8.0 0.00 0.00 0.00 74 1007.7
20260506132511 65 0 0.0 8.0 0.00 0.00 0.00 74 1007.7
20260506132015 65 238 0.0 7.0 0.00 0.00 0.00 74 1007.7
20260506131529 64 241 3.0 10.0 0.00 0.00 0.00 74 1007.7
20260506131010 64 256 3.0 10.0 0.00 0.00 0.00 74 1007.8
20260506130514 64 243 2.0 9.0 0.00 0.00 0.00 75 1007.8
20260506130030 64 262 3.0 9.0 0.00 0.00 0.00 75 1007.9
20260506125514 64 229 2.0 7.0 0.00 0.00 0.00 75 1007.8
20260506125011 63 217 1.0 10.0 0.00 0.00 0.00 75 1007.7
20260506124529 63 228 2.0 10.0 0.00 0.00 0.00 75 1007.7
20260506124010 63 259 5.0 12.0 0.00 0.00 0.00 75 1007.7
20260506123511 63 195 3.0 12.0 0.00 0.00 0.00 75 1007.7
20260506123030 63 194 4.0 11.0 0.00 0.00 0.00 75 1007.7
20260506122509 63 233 4.0 11.0 0.00 0.00 0.00 75 1007.8
20260506122012 63 212 3.0 8.0 0.00 0.00 0.00 76 1008.0
20260506121530 63 0 3.0 8.0 0.00 0.00 0.00 76 1007.9
20260506121009 62 257 2.0 7.0 0.00 0.00 0.00 76 1008.0
20260506120511 62 220 3.0 7.0 0.00 0.00 0.00 77 1008.0
20260506120048 62 205 3.0 7.0 0.00 0.00 0.00 77 1008.1
20260506115511 62 205 3.0 9.0 0.00 0.00 0.00 77 1008.2
20260506115012 62 200 3.0 9.0 0.00 0.00 0.00 77 1008.1
20260506114534 62 250 3.0 9.0 0.00 0.00 0.00 77 1008.3
20260506114013 62 244 3.0 9.0 0.00 0.00 0.00 77 1008.3
20260506113511 61 248 4.0 9.0 0.00 0.00 0.00 77 1008.2
20260506113030 61 193 4.0 11.0 0.00 0.00 0.00 77 1008.2
20260506112510 61 0 2.0 11.0 0.00 0.00 0.00 77 1008.4
20260506112013 61 232 3.0 10.0 0.00 0.00 0.00 77 1008.3
20260506111531 61 200 5.0 10.0 0.00 0.00 0.00 77 1008.2
20260506111010 61 173 3.0 13.0 0.00 0.00 0.00 78 1008.4
20260506110510 61 203 2.0 13.0 0.00 0.00 0.00 78 1008.5
20260506110032 61 198 5.0 13.0 0.00 0.00 0.00 78 1008.3
20260506105517 60 200 4.0 11.0 0.00 0.00 0.00 78 1008.2
20260506105010 60 191 4.0 11.0 0.00 0.00 0.00 78 1008.3
20260506104539 60 198 6.0 11.0 0.00 0.00 0.00 78 1008.3
20260506104016 60 201 6.0 12.0 0.00 0.00 0.00 78 1008.3
20260506103510 60 181 4.0 12.0 0.00 0.00 0.00 78 1008.3
20260506103040 60 195 5.0 10.0 0.00 0.00 0.00 78 1008.3
20260506102516 60 187 3.0 10.0 0.00 0.00 0.00 78 1008.3
20260506102011 60 196 2.0 8.0 0.00 0.00 0.00 78 1008.2
20260506101532 60 188 3.0 7.0 0.00 0.00 0.00 78 1008.2
20260506101009 60 204 2.0 8.0 0.00 0.00 0.00 78 1008.3
20260506100511 60 257 2.0 9.0 0.00 0.00 0.00 78 1008.3
20260506100031 60 0 1.0 9.0 0.00 0.00 0.00 78 1008.4
20260506095509 60 0 2.0 7.0 0.00 0.00 0.00 78 1008.1
20260506095010 59 193 2.0 7.0 0.00 0.00 0.00 77 1008.2
20260506094530 59 0 0.0 0.0 0.00 0.00 0.00 77 1008.2
20260506094009 59 0 0.0 0.0 0.00 0.00 0.00 77 1008.2
20260506093511 59 0 0.0 0.0 0.00 0.00 0.00 77 1008.2
20260506093031 59 0 0.0 3.0 0.00 0.00 0.00 76 1008.4
20260506092509 59 0 0.0 3.0 0.00 0.00 0.00 76 1008.1
20260506092014 59 0 0.0 4.0 0.00 0.00 0.00 76 1008.2
20260506091530 59 205 0.0 4.0 0.00 0.00 0.00 76 1008.1
20260506091011 59 0 0.0 0.0 0.00 0.00 0.00 75 1008.1
20260506090512 59 0 0.0 0.0 0.00 0.00 0.00 75 1008.1
20260506090031 59 0 0.0 0.0 0.00 0.00 0.00 74 1008.0
20260506085508 60 0 0.0 3.0 0.00 0.00 0.00 74 1008.2
20260506085009 60 0 0.0 3.0 0.00 0.00 0.00 75 1008.1
20260506084606 60 0 0.0 3.0 0.00 0.00 0.00 74 1008.2
20260506084017 60 0 0.0 0.0 0.00 0.00 0.00 74 1008.2
20260506083514 59 0 0.0 0.0 0.00 0.00 0.00 74 1008.1
20260506083029 59 0 0.0 0.0 0.00 0.00 0.00 74 1008.2
20260506082510 60 0 0.0 0.0 0.00 0.00 0.00 73 1008.1
20260506082014 60 0 0.0 0.0 0.00 0.00 0.00 73 1008.1
20260506081540 60 0 0.0 0.0 0.00 0.00 0.00 72 1008.1
20260506081011 60 0 0.0 0.0 0.00 0.00 0.00 72 1008.1
20260506080511 60 0 0.0 0.0 0.00 0.00 0.00 71 1008.1
20260506073510 61 0 2.0 5.0 0.00 0.00 0.00 70 1007.8
20260506073030 61 0 0.0 0.0 0.00 0.00 0.00 70 1007.8
20260506072513 61 0 0.0 6.0 0.00 0.00 0.00 70 1007.7
20260506072013 61 0 0.0 6.0 0.00 0.00 0.00 70 1007.6
20260506071534 61 207 2.0 7.0 0.00 0.00 0.00 69 1007.7
20260506071012 61 210 2.0 7.0 0.00 0.00 0.00 69 1007.7
20260506070512 62 198 3.0 7.0 0.00 0.00 0.00 69 1007.5
20260506062512 62 0 2.0 8.0 0.00 0.00 0.00 67 1007.4
20260506062016 62 202 3.0 12.0 0.00 0.00 0.00 67 1007.4
20260506061530 62 204 2.0 12.0 0.00 0.00 0.00 67 1007.3
20260506061010 62 201 3.0 8.0 0.00 0.00 0.00 67 1007.5
20260506060515 62 195 2.0 7.0 0.00 0.00 0.00 67 1007.4
20260506051013 63 201 3.0 9.0 0.00 0.00 0.00 64 1007.9
20260506050510 64 195 2.0 9.0 0.00 0.00 0.00 64 1007.8
20260506045010 64 200 3.0 9.0 0.00 0.00 0.00 64 1008.0
20260506044536 64 193 4.0 9.0 0.00 0.00 0.00 63 1007.8
20260506044011 64 177 5.0 9.0 0.00 0.00 0.00 63 1007.9
20260506043513 64 220 3.0 15.0 0.00 0.00 0.00 63 1007.7
20260506043030 65 197 5.0 15.0 0.00 0.00 0.00 63 1007.7
20260506042511 65 218 5.0 15.0 0.00 0.00 0.00 62 1007.6
20260506042015 65 184 5.0 12.0 0.00 0.00 0.00 62 1007.7
20260506041530 65 198 3.0 7.0 0.00 0.00 0.00 62 1007.7
20260506041013 65 200 3.0 9.0 0.00 0.00 0.00 62 1007.6